West Palm Beach, FL

12:43 PM EDT on October 14, 2019 (GMT -0400)
Palm Beach International

Weather History for KPBI - May, 2019

Change the Weather History Date:

Sunday, May 5, 2019

  Actual Average Record
Temperature  
Mean Temperature 80 °F 77 °F  
Max Temperature 88 °F 84 °F 91 °F (1951)
Min Temperature 72 °F 69 °F 45 °F (1921)
Degree Days  
Heating Degree Days 0 0  
Month to date heating degree days 0 0  
Since 1 July heating degree days 144 233  
Cooling Degree Days 15 12  
Month to date cooling degree days 68 56  
Year to date cooling degree days 993 751  
Growing Degree Days 30 (Base 50)    
Moisture  
Dew Point 72 °F    
Average Humidity 77    
Maximum Humidity 94    
Minimum Humidity 59    
Precipitation  
Precipitation 0.91 in 0.08 in 7.04 in (1958)
Month to date precipitation 2.28 0.41  
Year to date precipitation 18.00 14.61  
Snow  
Snow 0.00 in - - ()
Month to date snowfall 0.0  
Since 1 July snowfall 0.0  
Snow Depth 0.00 in    
Sea Level Pressure  
Sea Level Pressure 29.93 in    
Wind  
Wind Speed 8 mph (South)    
Max Wind Speed 22 mph    
Max Gust Speed 27 mph    
Visibility 9 miles    
Events Rain , Thunderstorm    
T = Trace of Precipitation, MM = Missing Value Source: NWS Daily Summary

Daily Weather History Graph

Daily Weather History Graph

Search for Another Location

Airport or City:

Astronomy

May. 05, 2019 Rise Set
Actual Time 6:39 AM EDT 7:55 PM EDT
Civil Twilight 6:14 AM EDT 8:19 PM EDT
Nautical Twilight 5:45 AM EDT 8:49 PM EDT
Astronomical Twilight 5:15 AM EDT 9:19 PM EDT
Moon 7:19 AM EDT (5/5) 8:46 PM EDT (5/5)
Length of Visible Light 14h 04m
Length of Day
13h 15m
New Moon, 1% of the Moon is Illuminated
May 5
New Moon
May 11
First Quarter
May 18
Full
May 26
Last Quarter
Jun 3
New

Hourly Weather History & Observations

Time (EDT) Temp. Heat Index Dew Point Humidity Pressure Visibility Wind Dir Wind Speed Gust Speed Precip Events Conditions
12:53 AM 78.1 °F - 73.9 °F 87% 29.97 in 10.0 mi South 6.9 mph - N/A   Partly Cloudy
1:53 AM 77.0 °F - 73.9 °F 90% 29.96 in 10.0 mi South 4.6 mph - N/A   Scattered Clouds
2:53 AM 75.9 °F - 73.9 °F 94% 29.94 in 10.0 mi SSE 3.5 mph - N/A   Partly Cloudy
3:53 AM 75.9 °F - 73.9 °F 94% 29.92 in 10.0 mi SSE 4.6 mph - N/A   Partly Cloudy
4:53 AM 75.9 °F - 73.9 °F 94% 29.92 in 10.0 mi South 3.5 mph - N/A   Scattered Clouds
5:53 AM 75.0 °F - 73.0 °F 94% 29.93 in 10.0 mi Calm Calm - N/A   Scattered Clouds
6:53 AM 75.0 °F - 73.0 °F 94% 29.93 in 10.0 mi SSE 3.5 mph - N/A   Scattered Clouds
7:53 AM 78.1 °F - 75.0 °F 90% 29.94 in 10.0 mi South 5.8 mph - N/A   Partly Cloudy
8:53 AM 81.0 °F 86.2 °F 73.9 °F 79% 29.95 in 10.0 mi South 8.1 mph - N/A   Scattered Clouds
9:53 AM 82.9 °F 88.8 °F 73.0 °F 72% 29.95 in 10.0 mi South 13.8 mph - N/A   Scattered Clouds
10:53 AM 84.9 °F 90.7 °F 72.0 °F 65% 29.96 in 10.0 mi South 13.8 mph 18.4 mph N/A   Scattered Clouds
11:53 AM 84.9 °F 90.7 °F 72.0 °F 65% 29.94 in 10.0 mi South 12.7 mph - N/A   Mostly Cloudy
12:53 PM 87.1 °F 93.6 °F 72.0 °F 61% 29.93 in 10.0 mi SSE 16.1 mph 25.3 mph N/A   Mostly Cloudy
1:53 PM 87.1 °F 92.8 °F 71.1 °F 59% 29.91 in 10.0 mi South 17.3 mph - N/A   Mostly Cloudy
2:53 PM 87.1 °F 93.6 °F 72.0 °F 61% 29.88 in 10.0 mi SE 21.9 mph 26.5 mph N/A   Mostly Cloudy
3:53 PM 82.9 °F 88.0 °F 72.0 °F 69% 29.86 in 10.0 mi SSE 18.4 mph 25.3 mph N/A   Mostly Cloudy
4:05 PM 82.9 °F 87.5 °F 71.1 °F 67% 29.86 in 10.0 mi SSE 13.8 mph - N/A Thunderstorm Thunderstorm
4:26 PM 81.0 °F 85.8 °F 73.0 °F 77% 29.87 in 7.0 mi South 12.7 mph - 0.00 in Rain , Thunderstorm Light Thunderstorms and Rain
4:32 PM 80.1 °F 84.2 °F 73.0 °F 79% 29.89 in 2.5 mi SSW 15.0 mph - 0.05 in Rain , Thunderstorm Heavy Thunderstorms and Rain
4:39 PM 78.1 °F - 73.9 °F 87% 29.91 in 1.0 mi West 17.3 mph - 0.16 in Rain , Thunderstorm Heavy Thunderstorms and Rain
4:53 PM 75.9 °F - 73.9 °F 94% 29.90 in 3.0 mi South 11.5 mph 23.0 mph 0.51 in Rain , Thunderstorm Thunderstorms and Rain
5:19 PM 73.9 °F - 68.0 °F 82% 29.92 in 7.0 mi NNW 10.4 mph - 0.03 in Rain , Thunderstorm Light Thunderstorms and Rain
5:45 PM 73.9 °F - 71.1 °F 91% 29.93 in 2.0 mi NW 8.1 mph - 0.12 in Rain , Thunderstorm Heavy Thunderstorms and Rain
5:53 PM 73.0 °F - 71.1 °F 93% 29.92 in 2.0 mi North 8.1 mph - 0.26 in Rain , Thunderstorm Heavy Thunderstorms and Rain
6:03 PM 73.0 °F - 71.1 °F 93% 29.91 in 7.0 mi NE 6.9 mph - 0.09 in Rain , Thunderstorm Light Thunderstorms and Rain
6:53 PM 75.0 °F - 72.0 °F 90% 29.93 in 10.0 mi ENE 5.8 mph - 0.14 in Thunderstorm Thunderstorm
7:53 PM 73.9 °F - 70.0 °F 87% 29.93 in 10.0 mi SE 3.5 mph - N/A Thunderstorm Thunderstorm
8:07 PM 73.9 °F - 69.1 °F 85% 29.94 in 10.0 mi Calm Calm - N/A   Mostly Cloudy
8:53 PM 75.0 °F - 70.0 °F 84% 29.95 in 10.0 mi SE 4.6 mph - N/A   Mostly Cloudy
9:53 PM 75.0 °F - 71.1 °F 87% 29.96 in 10.0 mi South 10.4 mph - N/A   Mostly Cloudy
10:53 PM 73.9 °F - 70.0 °F 87% 29.96 in 10.0 mi SSW 3.5 mph - N/A   Mostly Cloudy
11:53 PM 73.0 °F - 70.0 °F 90% 29.95 in 10.0 mi South 3.5 mph - N/A   Clear